[TLELIST]

  • This mailing list is a public mailing list - anyone may join or leave, at any time.
  • This mailing list is announce-only.

International Space Station (ISS) / Hubble Space Telescope (HST) / Chandra X-Ray Observatory Orbital Data via EMAIL

Privacy Policy:

Private list

Archived Messages

 

[TLELIST] Current TLEs

May 13th 2026 PDT

0 HST 1 20580U 90037B 26133.19372359 .00004351 00000-0 13638-3 0 9995 2 20580 28.4756 319.6625 0002153 105.4031 254.6803 15.30366798783202 0 ISS (ZARYA) 1 25544U 98067A 26133.16648102 .00004986 00000-0 97915-4 0 9995 2 25544 51.6312 113.4597 0007515 53.2822 306.8856 15.49201863566327 0 CXO 1 25867U 99040B 26134.99575802 .00000704 00000-0 00000-0 0 9992 2 25867 55.6591 117.5844 7896930 310.4386 359.9851 0.37808652 17195 ...Continue Reading

[TLELIST] Current TLEs

May 12th 2026 PDT

0 HST 1 20580U 90037B 26132.21553854 .00004520 00000-0 14199-3 0 9999 2 20580 28.4756 326.3439 0002185 96.7718 263.3127 15.30359319783059 0 ISS (ZARYA) 1 25544U 98067A 26132.19887560 .00004713 00000-0 93039-4 0 9991 2 25544 51.6312 118.2489 0007476 49.7974 310.3668 15.49191856566178 0 CXO 1 25867U 99040B 26134.99575802 .00000704 00000-0 00000-0 0 9992 2 25867 55.6591 117.5844 7896930 310.4386 359.9851 0.37808652 17195 ...Continue Reading

[TLELIST] Current TLEs

May 12th 2026 PDT

0 HST 1 20580U 90037B 26132.21553854 .00004520 00000-0 14199-3 0 9999 2 20580 28.4756 326.3439 0002185 96.7718 263.3127 15.30359319783059 0 ISS (ZARYA) 1 25544U 98067A 26132.19887560 .00004713 00000-0 93039-4 0 9991 2 25544 51.6312 118.2489 0007476 49.7974 310.3668 15.49191856566178 0 CXO 1 25867U 99040B 26134.99575802 .00000704 00000-0 00000-0 0 9992 2 25867 55.6591 117.5844 7896930 310.4386 359.9851 0.37808652 17195 ...Continue Reading

[TLELIST] Current TLEs

May 11th 2026 PDT

0 HST 1 20580U 90037B 26130.91128385 .00004942 00000-0 15600-3 0 9997 2 20580 28.4758 335.2524 0002203 85.6374 274.4473 15.30349034782858 0 ISS (ZARYA) 1 25544U 98067A 26131.16675675 .00005444 00000-0 10622-3 0 9997 2 25544 51.6310 123.3566 0007470 46.3627 313.7980 15.49181925566014 0 CXO 1 25867U 99040B 26132.35181578 .00000778 00000-0 00000-0 0 9994 2 25867 55.5870 117.7083 7898886 310.4213 0.0914 0.37804510 17184 ...Continue Reading

[TLELIST] Current TLEs

May 10th 2026 PDT

0 HST 1 20580U 90037B 26129.80266005 .00005313 00000-0 16829-3 0 9992 2 20580 28.4760 342.8246 0002190 75.4822 284.6017 15.30338732782687 0 ISS (ZARYA) 1 25544U 98067A 26130.19913920 .00006212 00000-0 12008-3 0 9991 2 25544 51.6310 128.1454 0007453 42.8467 317.3101 15.49169801565863 0 CXO 1 25867U 99040B 26132.35181578 .00000778 00000-0 00000-0 0 9994 2 25867 55.5870 117.7083 7898886 310.4213 0.0914 0.37804510 17184 ...Continue Reading

[TLELIST] Current TLEs

May 9th 2026 PDT

0 HST 1 20580U 90037B 26128.82445620 .00006178 00000-0 19696-3 0 9990 2 20580 28.4761 349.5058 0002174 66.2001 293.8822 15.30329702782539 0 ISS (ZARYA) 1 25544U 98067A 26128.97347854 .00006654 00000-0 12812-3 0 9994 2 25544 51.6310 134.2107 0007399 38.6382 321.5134 15.49152986565672 0 CXO 1 25867U 99040B 26129.70737146 .00000792 00000-0 00000-0 0 9993 2 25867 55.5364 117.7999 7900392 310.4423 0.0547 0.37799268 17171 ...Continue Reading

[TLELIST] [TLELIST] Current TLEs

May 9th 2026 PDT

0 HST 1 20580U 90037B 26128.82445620 .00006178 00000-0 19696-3 0 9990 2 20580 28.4761 349.5058 0002174 66.2001 293.8822 15.30329702782539 0 ISS (ZARYA) 1 25544U 98067A 26128.97347854 .00006654 00000-0 12812-3 0 9994 2 25544 51.6310 134.2107 0007399 38.6382 321.5134 15.49152986565672 0 CXO 1 25867U 99040B 26129.70737146 .00000792 00000-0 00000-0 0 9993 2 25867 55.5364 117.7999 7900392 310.4423 0.0547 0.37799268 17171 ...Continue Reading

[TLELIST] Current TLEs

May 8th 2026 PDT

0 HST 1 20580U 90037B 26127.97667409 .00005999 00000-0 19110-3 0 9997 2 20580 28.4762 355.2958 0002158 58.4789 301.6018 15.30319964782401 0 ISS (ZARYA) 1 25544U 98067A 26128.19937109 .00004920 00000-0 96926-4 0 9999 2 25544 51.6308 138.0417 0007476 35.9089 324.2400 15.49139257565554 0 CXO 1 25867U 99040B 26129.70737146 .00000792 00000-0 00000-0 0 9993 2 25867 55.5364 117.7999 7900392 310.4423 0.0547 0.37799268 17171 ...Continue Reading

[TLELIST] Current TLEs

May 7th 2026 PDT

0 HST 1 20580U 90037B 26126.99845732 .00006020 00000-0 19186-3 0 9994 2 20580 28.4762 1.9769 0002131 49.8237 310.2545 15.30309267782258 0 ISS (ZARYA) 1 25544U 98067A 26127.16721672 .00005508 00000-0 10757-3 0 9991 2 25544 51.6305 143.1491 0007435 32.2307 327.9134 15.49128668565398 0 CXO 1 25867U 99040B 26129.70737146 .00000792 00000-0 00000-0 0 9993 2 25867 55.5364 117.7999 7900392 310.4423 0.0547 0.37799268 17171 ...Continue Reading

[TLELIST] Current TLEs

May 1st 2026 PDT

0 HST 1 20580U 90037B 26121.12897901 .00008025 00000-0 25885-3 0 9999 2 20580 28.4760 42.0596 0001816 349.3282 10.7275 15.30223611781357 0 ISS (ZARYA) 1 25544U 98067A 26121.23215145 .00007946 00000-0 15194-3 0 9994 2 25544 51.6312 172.5179 0007184 10.5209 349.5928 15.49045666564471 0 CXO 1 25867U 99040B 26121.77434247 .00000574 00000-0 00000+0 0 9995 2 25867 55.4326 117.9802 7910128 310.5568 359.9255 0.37807064 17145 ...Continue Reading